Regional Weather Roundup
Issued by NWS

Home | Current Version | Previous Version | Text Only | Print | Product List | Glossary On
Versions: 1 2 3 4 5 6 7 8 9 10 11 12 13 14 15 16 17 18 19 20 21 22 23 24 25 26 27 28 29 30 31 32 33 34 35 36 37 38 39 40 41 42 43 44 45 46 47 48 49 50
000
ASUS45 KREV 291110
RWRNV
NEVADA REGIONAL WEATHER ROUNDUP
NATIONAL WEATHER SERVICE RENO NV
400 AM PDT TUE JUL 29 2014

NOTE: "FAIR" INDICATES FEW OR NO CLOUDS BELOW 12,000 FEET WITH NO
SIGNIFICANT WEATHER AND/OR OBSTRUCTIONS TO VISIBILITY.

NVZ001-003-004-291200-
WESTERN NEVADA

CITY           SKY/WX    TMP DP  RH WIND       PRES   REMARKS
RENO           CLOUDY    73  50  44 CALM      30.21S
CARSON CITY    LGT RAIN  68  54  60 SW7       30.23F
SLIDE MTN        N/A     55  32  41 NW10        N/A
PYRAMID LAKE     N/A     77 N/A N/A S8          N/A
FALLON         CLOUDY    72  50  45 S9        30.15S
LOVELOCK       MOCLDY    65  48  54 E7        30.13S
HAWTHORNE      CLEAR     72  54  53 E8        30.21S
$$

NVZ002-CAZ072-073-291200-
NORTHERN AND CENTRAL SIERRA

CITY           SKY/WX    TMP DP  RH WIND       PRES   REMARKS
S. LAKE TAHOE  CLOUDY    61  42  49 CALM      30.36R
TRUCKEE        CLOUDY    55  41  58 CALM      30.35R
SQUAW VLY 8000 NOT AVBL
BLUE CANYON    CLOUDY    71  30  21 SE3       30.31S
MAMMOTH LAKES  CLOUDY    54  50  87 CALM      30.44S
BRIDGEPORT     MOCLDY    52  47  83 CALM      30.38S
$$

NVZ030-031-036-291200-
NORTHERN NEVADA

CITY           SKY/WX    TMP DP  RH WIND       PRES   REMARKS
ELKO           CLOUDY    64  56  75 E5        30.23F
WINNEMUCCA     MOCLDY    73  45  36 SE9       30.14S
WENDOVER       CLOUDY    70  61  73 W3        30.19S
$$

NVZ035-037-291200-
CENTRAL NEVADA

CITY           SKY/WX    TMP DP  RH WIND       PRES   REMARKS
ELY            CLOUDY    59  56  89 S10       30.30S
EUREKA           N/A     61  55  81 S7        30.28R
$$

NVZ013-014-291200-
SOUTH CENTRAL NEVADA

CITY           SKY/WX    TMP DP  RH WIND       PRES   REMARKS
TONOPAH        LGT RAIN  61  58  90 W3        30.31F
$$

NVZ017-020-022-291200-
SOUTHERN NEVADA

CITY           SKY/WX    TMP DP  RH WIND       PRES   REMARKS
LAS VEGAS      PTCLDY    80  62  54 S10       29.99F
N. LAS VEGAS   PTCLDY    82  60  47 N7        30.02F
NELLIS AFB     MOCLDY    79  64  60 NE2       30.01S
HENDERSON      PTCLDY    75  65  71 S8        30.06F
MERCURY        MOCLDY    74  58  57 SW6       30.12R
$$



USA.gov is the U.S. government's official web portal to all federal, state and local government web resources and services.